#timestamp,LO_Frequency,Hit 
1505131215.6,286046999.1,N
1505131235.4,286046998.1,N
1505131255.3,286046996.5,N
1505131275.1,286046995.2,P
1505131295.8,286046998.7,N
1505131315.7,286047000.2,N
1505131335.5,286047000.4,N
1505131355.3,286046997.2,N
1505131375.2,286047001.1,N
1505131395.9,286047001.8,N
1505131415.7,286047003.3,N
1505131435.6,286047003.8,N
1505131455.4,286047002.5,N
1505131475.2,286047001.3,N
1505131495.0,286047003.1,N
1505131496.0,286047003.1,N
1505131515.8,286047003.9,N
1505131535.6,286047004.1,N
1505131555.4,286047001.5,N
1505131575.3,286047003.9,N
1505131595.1,286047003.4,N
1505131615.8,286046999.7,N
1505131635.7,286046997.6,N
1505131655.5,286046996.8,N
1505131675.3,286047000.7,N
1505131695.2,286047000.2,N
1505131715.9,286047000.3,N
1505131735.7,286047002.3,N
1505131755.6,286047001.1,N
1505131775.4,286047002.3,N
1505131795.2,286047000.9,N
1505131815.0,286047001.8,N
1505131816.0,286047001.8,N
1505131835.8,286047002.2,N
1505131855.6,286047002.1,N
1505131875.4,286047002.5,N
1505131895.3,286047001.1,N
1505131915.1,286046996.7,N
1505131935.8,286046997.4,N
1505131955.7,286046997.5,N
1505131975.5,286046996.8,N
1505131995.3,286046998.0,N
1505132015.2,286046994.1,N
1505132035.9,286046992.6,N
1505132055.7,286046993.3,N
1505132075.6,286046992.2,N
1505132095.4,286046995.4,N
1505132115.2,286046996.6,N
1505132135.1,286046997.9,N
1505132136.0,286046997.9,N
1505132155.8,286046997.1,N
1505132175.6,286046999.2,N
1505132195.5,286047000.8,N
1505132215.3,286046997.0,N
1505132235.1,286046999.4,N
1505132255.8,286046999.0,N
1505132275.7,286046998.4,N
1505132295.5,286046996.9,N
1505132315.3,286046995.0,N
1505132335.2,286046997.5,N
1505132355.9,286046997.9,N
1505132375.7,286046993.6,N
1505132395.6,286046997.7,N
1505132415.4,286046999.6,N
1505132435.2,286046999.0,N
1505132455.1,286046996.6,N
1505132456.0,286046996.6,N
1505132475.8,286046993.3,P
1505132495.6,286046998.1,N
1505132515.5,286047000.2,N
1505132535.3,286047002.8,N
1505132555.1,286046998.5,N
1505132575.9,286046999.6,N
1505132595.7,286046999.4,N
1505132615.5,286046996.6,N
1505132635.4,286046998.3,N
1505132655.2,286046998.8,N
1505132675.0,286046998.6,N
1505132675.9,286046998.6,N
1505132695.7,286046996.9,N
1505132715.6,286046999.6,N
1505132735.4,286046995.9,N
1505132755.3,286046993.4,P
1505132775.1,286046995.1,N
1505132776.0,286046995.1,N
1505132795.8,286046994.6,P
1505132815.7,286046998.3,P
1505132835.5,286047000.4,N
1505132855.3,286047002.0,N
1505132875.2,286047004.2,N
1505132895.9,286047005.9,N
1505132915.7,286047002.9,N
1505132935.5,286047005.0,N
1505132955.4,286047007.3,N
1505132975.2,286047006.8,N
1505132995.0,286047005.2,N
1505132995.9,286047005.2,N
1505133015.8,286047006.8,N
1505133035.6,286047006.4,N
1505133055.4,286047006.1,N
1505133075.3,286047007.2,N
1505133095.1,286047007.1,N
1505133115.8,286047006.7,N
1505133135.7,286047007.4,N
1505133155.5,286047007.3,N
1505133175.3,286047004.1,N
1505133195.2,286046998.9,N
1505133215.9,286047000.4,N
1505133235.7,286047001.7,N
1505133255.5,286047001.7,N
1505133275.4,286047002.5,N
1505133295.2,286047001.6,N
1505133315.0,286047001.6,N
1505133315.9,286047001.6,N
1505133335.8,286047002.4,N
1505133355.6,286047001.4,N
1505133375.4,286047004.3,N
1505133395.3,286047002.5,N
1505133415.1,286046996.8,N
1505133435.8,286046996.1,N
1505133455.7,286046999.4,N
1505133475.5,286046995.1,N
1505133495.3,286046997.9,N
1505133515.2,286046995.0,N
1505133535.9,286047000.8,N
1505133555.7,286047002.7,N
1505133575.5,286047000.4,N
1505133595.4,286046997.9,N
1505133615.2,286046996.5,N
1505133635.0,286046999.7,N
1505133635.9,286046999.7,N
1505133655.8,286047002.0,N
1505133675.6,286046996.6,N
1505133695.4,286046995.7,N
1505133715.3,286046996.4,N
1505133735.1,286046994.2,N
1505133755.8,286046993.9,N
1505133775.7,286046995.8,N
1505133795.5,286046993.9,N
1505133815.3,286046994.2,N
1505133835.2,286046993.4,N
1505133855.9,286046993.4,N
1505133875.7,286046995.0,N
1505133895.6,286046995.4,N
1505133915.4,286046993.8,N
1505133935.2,286046995.7,N
1505133955.0,286046995.0,N
1505133956.0,286046995.0,N
1505133975.8,286046998.7,N
1505133995.6,286047000.0,N
1505134015.4,286047003.7,N
1505134035.3,286047002.0,N
1505134055.1,286047003.8,N
1505134075.8,286047001.6,N
1505134095.7,286046999.0,N
1505134115.5,286046993.7,N
1505134135.3,286046997.3,N
1505134155.2,286047000.5,N
1505134175.9,286047001.2,N
1505134195.7,286046999.2,N
1505134215.6,286047001.1,N
1505134235.4,286046998.7,N
1505134255.2,286046998.2,N
1505134275.1,286046998.5,N
1505134276.0,286046998.5,N
1505134295.8,286046999.3,N
1505134315.6,286046996.9,N
1505134335.5,286046995.4,N
1505134355.3,286046996.2,N
1505134375.1,286046995.6,N
1505134395.8,286046993.5,N
1505134415.7,286046992.6,N
1505134435.5,286046993.4,N
1505134455.3,286046995.7,N
1505134475.2,286046994.5,N
1505134495.9,286046995.1,N
1505134515.7,286046995.4,N
1505134535.6,286046995.3,N
1505134555.4,286046994.9,N
1505134575.2,286046995.3,N
1505134595.1,286046995.6,N
1505134596.0,286046995.6,N
1505134615.8,286046997.8,N
1505134635.6,286046996.5,N
1505134655.5,286046997.7,N
1505134675.3,286046995.1,N
1505134695.1,286046995.4,N
1505134715.9,286046995.4,N
1505134735.7,286046997.0,N
1505134755.5,286046996.0,N
1505134775.3,286046995.9,N
1505134795.2,286046995.2,P
